FENGYUN 1C DEB, 37427

Orbit data source: Space-Track

FENGYUN 1C DEB, 37427 is space debris in SSO originally from a launch on Mon, 10 May 1999 UTC launched from the Taiyaun Space Center, China (TSC). Fengyun 1C debris stems from the Chinese weather satellite Fengyun-1C, which was intentionally destroyed by a Chinese anti-satellite missile in 2007. This event dramatically increased the amount of space debris, with thousands of trackable fragments posing hazards to satellites and human spaceflight. The Fengyun 1C debris cloud has become a focal point in discussions about space sustainability and the need for international regulations to prevent the creation of new debris.

Loading next visibility...
Identifier
37427, 1999-025EGV
Orbit
SSO
Country
Flag of CNCN / PRC
Related business
Manufacturer
Unknown
Mission
Spacecraft
Bus & Motor
Unknown
Mass
Unknown
Launch date (UTC)
1999-05-10 (27 years ago)
Launch vehicle
Unknown
Launch site
Taiyaun Space Center, China (TSC)
Object type
Payload
Rocket body
Debris
Shape & HBR
Unknown shape, 0.1 m
Radar Cross Section
Small (<0.1 m²)

Expand to show TLE details & history
Last TLE update: 3 days ago

TLE from 3 days ago
0 FENGYUN 1C DEB
1 37427U 99025EGV 26163.70712992  .00005897  00000-0  33691-3 0  9997
2 37427  98.6382 330.4650 0173601  60.2584 301.5783 15.01228654630500
Epoch: 2026-06-12T16:58Z
TLE epoch observation values (Epoch: 2026-06-12T16:58:16.025Z)
Latitude
-0.00007°
Longitude
174.86553°
Altitude
504.558 km
Speed
7.646 km/s
True Right ascension
22h 01m 51s
True Declination
0° 00' 00"
Sunlit
Object was in daylight at epoch
Visualization orbit readout
Latitude
Unknown
Longitude
Unknown
Altitude
Unknown
Speed
Unknown
Apparent Right ascension
Unknown
Apparent Declination
Unknown
Sunlit
N/A
Visualization observer readout
Local Sidereal Time
05:21:53
Azimuth
Unknown
Elevation
Unknown
Doppler factor
Unknown
Orbital elements
Apogee altitude
680.602 km
Perigee altitude
439.703 km
Semi-major axis
6,938.29 km
Eccentricity
0.01736
Inclination
98.6382°
RAAN
330.465°
Arg. of periapsis
60.2584°
True anomaly
299.86433°
Mean anomaly
301.5783°
Eccentric anomaly
300.72325°
Mean motion
3.75547 °/min
Orbital period
95.86 mins
BSTAR
0.00033691
Loading maneuver chart data...
Computing Atmospheric mass density...

Documentation

Showing up to 5 results
|